When you browse on this site, cookies collect data to enhance your experience and personalize the content and advertising you see.
Visit our Privacy Policy to learn more. By continuing to use the site, you agree to this use of cookies and data.

Hourly Weather Fria

Today, 27 September, Sunday

Time Temperature Precipitation Wind Pressure Humidity
00:00 +23°C° 0.2 mm 0 mps 752 mmHg 95%
01:00 +23°C° 0.2 mm 0 mps 752 mmHg 96%
02:00 +23°C° 0.2 mm 0 mps 752 mmHg 96%
03:00 +22°C° 0.1 mm 0 mps 752 mmHg 96%
04:00 +22°C° 0.1 mm 0 mps 751 mmHg 96%
05:00 +23°C° 0 mm 0 mps 751 mmHg 96%
06:00 +23°C° 0.1 mm 0 mps 752 mmHg 94%
07:00 +24°C° 0.1 mm 0 mps 752 mmHg 93%
08:00 +26°C° 0.1 mm 1 mps 753 mmHg 92%
09:00 +28°C° 0.1 mm 1 mps 753 mmHg 85%
10:00 +30°C° 0.1 mm 1 mps 753 mmHg 78%
11:00 +31°C° 0.1 mm 2 mps 752 mmHg 72%
12:00 +31°C° 1.9 mm 2 mps 752 mmHg 75%
13:00 +30°C° 1.9 mm 2 mps 751 mmHg 79%
14:00 +29°C° 1.9 mm 2 mps 750 mmHg 82%
15:00 +28°C° 1.8 mm 2 mps 751 mmHg 85%
16:00 +28°C° 1.8 mm 2 mps 751 mmHg 88%
17:00 +27°C° 1.8 mm 2 mps 751 mmHg 91%
18:00 +26°C° 0.2 mm 1 mps 752 mmHg 92%
19:00 +26°C° 0.2 mm 1 mps 753 mmHg 93%
20:00 +23°C° 0.2 mm 0 mps 753 mmHg 94%
21:00 +23°C° 0.1 mm 0 mps 753 mmHg 94%
22:00 +23°C° 0.1 mm 0 mps 754 mmHg 94%
23:00 +23°C° 0.1 mm 0 mps 754 mmHg 94%

Tomorrow, 28 September, Monday

Time Temperature Precipitation Wind Pressure Humidity
00:00 +23°C° 0 mm 0 mps 753 mmHg 94%
01:00 +23°C° 0 mm 0 mps 753 mmHg 95%
02:00 +22°C° 0 mm 0 mps 753 mmHg 95%
03:00 +23°C° 0 mm 0 mps 753 mmHg 95%
04:00 +23°C° 0 mm 0 mps 753 mmHg 95%
05:00 +23°C° 0 mm 0 mps 753 mmHg 95%
06:00 +23°C° 0 mm 0 mps 753 mmHg 94%
07:00 +24°C° 0 mm 0 mps 753 mmHg 92%
08:00 +24°C° 0 mm 0 mps 754 mmHg 91%
09:00 +27°C° 0 mm 0 mps 754 mmHg 82%
10:00 +29°C° 0 mm 0 mps 754 mmHg 74%
11:00 +32°C° 0 mm 0 mps 754 mmHg 66%
12:00 +33°C° 0.1 mm 1 mps 753 mmHg 67%
13:00 +32°C° 0.1 mm 1 mps 752 mmHg 68%
14:00 +32°C° 0.1 mm 2 mps 752 mmHg 70%
15:00 +31°C° 0.8 mm 2 mps 752 mmHg 75%
16:00 +30°C° 0.8 mm 2 mps 752 mmHg 81%
17:00 +29°C° 0.8 mm 2 mps 751 mmHg 87%
18:00 +28°C° 0.7 mm 1 mps 752 mmHg 90%
19:00 +27°C° 0.7 mm 1 mps 753 mmHg 92%
20:00 +26°C° 0.7 mm 1 mps 753 mmHg 95%
21:00 +24°C° 0 mm 0 mps 754 mmHg 95%
22:00 +24°C° 0 mm 0 mps 754 mmHg 95%
23:00 +23°C° 0 mm 0 mps 754 mmHg 95%

Day after tomorrow, 29 September, Tuesday

Time Temperature Precipitation Wind Pressure Humidity
00:00 +23°C° 0 mm 0 mps 754 mmHg 95%
01:00 +24°C° 0 mm 0 mps 753 mmHg 95%
02:00 +24°C° 0 mm 0 mps 753 mmHg 95%
03:00 +24°C° 0 mm 0 mps 753 mmHg 95%
04:00 +24°C° 0 mm 0 mps 753 mmHg 95%
05:00 +24°C° 0 mm 0 mps 753 mmHg 95%
06:00 +25°C° 0 mm 0 mps 753 mmHg 92%
07:00 +26°C° 0 mm 0 mps 754 mmHg 89%
08:00 +28°C° 0 mm 1 mps 754 mmHg 86%
09:00 +28°C° 0 mm 0 mps 754 mmHg 82%
10:00 +29°C° 0 mm 0 mps 754 mmHg 77%
11:00 +30°C° 0 mm 0 mps 754 mmHg 73%
12:00 +32°C° 0.1 mm 1 mps 753 mmHg 71%
13:00 +33°C° 0.1 mm 1 mps 752 mmHg 70%
14:00 +33°C° 0.1 mm 1 mps 752 mmHg 69%
15:00 +32°C° 0.7 mm 1 mps 752 mmHg 75%
16:00 +31°C° 0.7 mm 2 mps 752 mmHg 80%
17:00 +30°C° 0.7 mm 2 mps 751 mmHg 86%
18:00 +29°C° 0.6 mm 1 mps 752 mmHg 89%
19:00 +28°C° 0.6 mm 1 mps 753 mmHg 92%
20:00 +27°C° 0.6 mm 1 mps 753 mmHg 95%
21:00 +27°C° 1.1 mm 1 mps 753 mmHg 96%
22:00 +24°C° 1.1 mm 0 mps 753 mmHg 96%
23:00 +24°C° 1.1 mm 0 mps 753 mmHg 97%

30 September, Wednesday

Time Temperature Precipitation Wind Pressure Humidity
00:00 +24°C° 0.7 mm 0 mps 753 mmHg 97%
01:00 +24°C° 0.7 mm 0 mps 752 mmHg 97%
02:00 +24°C° 0.7 mm 0 mps 752 mmHg 97%
03:00 +24°C° 0.2 mm 0 mps 752 mmHg 97%
04:00 +26°C° 0.2 mm 1 mps 752 mmHg 97%
05:00 +25°C° 0.2 mm 1 mps 752 mmHg 97%
06:00 +26°C° 0.1 mm 1 mps 753 mmHg 94%
07:00 +28°C° 0.1 mm 1 mps 753 mmHg 90%
08:00 +29°C° 0.1 mm 1 mps 754 mmHg 87%
09:00 +30°C° 0 mm 1 mps 753 mmHg 80%
10:00 +31°C° 0 mm 1 mps 753 mmHg 73%
11:00 +33°C° 0 mm 1 mps 753 mmHg 66%
12:00 +33°C° 0.2 mm 1 mps 753 mmHg 66%
13:00 +34°C° 0.2 mm 2 mps 752 mmHg 66%
14:00 +34°C° 0.2 mm 2 mps 751 mmHg 66%
15:00 +32°C° 0.2 mm 2 mps 751 mmHg 71%
16:00 +31°C° 0.2 mm 2 mps 752 mmHg 76%
17:00 +30°C° 0.2 mm 2 mps 752 mmHg 81%
18:00 +28°C° 0.4 mm 1 mps 752 mmHg 85%
19:00 +27°C° 0.4 mm 1 mps 753 mmHg 89%
20:00 +26°C° 0.4 mm 1 mps 754 mmHg 93%
21:00 +26°C° 0.1 mm 1 mps 754 mmHg 94%
22:00 +26°C° 0.1 mm 1 mps 754 mmHg 95%
23:00 +23°C° 0.1 mm 0 mps 754 mmHg 96%

1 October, Thursday

Time Temperature Precipitation Wind Pressure Humidity
00:00 +23°C° 0 mm 0 mps 754 mmHg 96%
01:00 +23°C° 0 mm 0 mps 753 mmHg 96%
02:00 +23°C° 0 mm 0 mps 753 mmHg 96%
03:00 +23°C° 0 mm 0 mps 753 mmHg 96%
04:00 +23°C° 0 mm 0 mps 752 mmHg 96%
05:00 +23°C° 0 mm 0 mps 752 mmHg 95%
06:00 +24°C° 0 mm 0 mps 753 mmHg 92%
07:00 +25°C° 0 mm 0 mps 753 mmHg 89%
08:00 +26°C° 0 mm 0 mps 753 mmHg 86%
09:00 +29°C° 0.1 mm 1 mps 753 mmHg 82%
10:00 +30°C° 0.1 mm 1 mps 753 mmHg 78%
11:00 +30°C° 0.1 mm 1 mps 753 mmHg 75%
12:00 +31°C° 0.1 mm 2 mps 753 mmHg 74%
13:00 +31°C° 0.1 mm 2 mps 752 mmHg 73%
14:00 +31°C° 0.1 mm 2 mps 752 mmHg 73%
15:00 +30°C° 0.4 mm 2 mps 752 mmHg 76%
16:00 +30°C° 0.4 mm 2 mps 752 mmHg 80%
17:00 +29°C° 0.4 mm 2 mps 752 mmHg 83%
18:00 +28°C° 0.1 mm 1 mps 752 mmHg 87%
19:00 +27°C° 0.1 mm 1 mps 752 mmHg 90%
20:00 +26°C° 0.1 mm 1 mps 753 mmHg 93%
21:00 +24°C° 0 mm 0 mps 753 mmHg 94%
22:00 +23°C° 0 mm 0 mps 753 mmHg 95%
23:00 +23°C° 0 mm 0 mps 753 mmHg 96%

2 October, Friday

Time Temperature Precipitation Wind Pressure Humidity
00:00 +23°C° 0 mm 0 mps 753 mmHg 96%
01:00 +23°C° 0 mm 0 mps 752 mmHg 96%
02:00 +23°C° 0 mm 0 mps 752 mmHg 97%
03:00 +23°C° 0 mm 0 mps 752 mmHg 97%
04:00 +23°C° 0 mm 0 mps 752 mmHg 97%
05:00 +23°C° 0 mm 0 mps 752 mmHg 97%
06:00 +24°C° 0 mm 0 mps 752 mmHg 93%
07:00 +25°C° 0 mm 0 mps 753 mmHg 89%
08:00 +27°C° 0 mm 0 mps 753 mmHg 85%
09:00 +30°C° 0.1 mm 1 mps 753 mmHg 79%
10:00 +31°C° 0.1 mm 1 mps 753 mmHg 74%
11:00 +32°C° 0.1 mm 2 mps 753 mmHg 69%
12:00 +32°C° 0.1 mm 2 mps 752 mmHg 70%
13:00 +32°C° 0.1 mm 2 mps 751 mmHg 72%
14:00 +32°C° 0.1 mm 2 mps 751 mmHg 73%
15:00 +31°C° 0.1 mm 2 mps 751 mmHg 76%
16:00 +30°C° 0.1 mm 2 mps 751 mmHg 79%
17:00 +30°C° 0.1 mm 2 mps 751 mmHg 81%
18:00 +29°C° 0 mm 2 mps 751 mmHg 86%
19:00 +27°C° 0 mm 1 mps 752 mmHg 90%
20:00 +26°C° 0 mm 1 mps 752 mmHg 94%
21:00 +26°C° 0 mm 1 mps 752 mmHg 95%
22:00 +24°C° 0 mm 0 mps 753 mmHg 95%
23:00 +24°C° 0 mm 0 mps 753 mmHg 96%
Show more